QPF
0.03 0.02 0.03 0.03 0.03 0.03 0.02 0.02 0.03 0.03 0.05 0.05 0.09 0.11 0.06 0.05 0.06 0.04 0.02 0.01 0.01 0.02 0.03 0.04 0.05 0.05 0.04 0.03 0.04 0.05 0.06 0.05 0.03 0.02 0.02 0.01 0.01 0.01 0.01 0.01 0.01 0.00 0.00 0.00
0.03 0.02 0.02 0.02 0.02 0.03 0.02 0.02 0.02 0.03 0.04 0.04 0.05 0.05 0.03 0.02 0.01 0.01 0.01 0.01 0.01 0.02 0.03 0.03 0.03 0.04 0.03 0.04 0.05 0.04 0.04 0.04 0.03 0.02 0.02 0.01 0.01 0.01 0.00 0.00 0.00 0.00 0.00 0.00
0.05 0.02 0.03 0.04 0.04 0.04 0.04 0.03 0.02 0.03 0.03 0.03 0.03 0.03 0.02 0.01 0.01 0.01 0.01 0.01 0.02 0.02 0.02 0.03 0.03 0.03 0.03 0.02 0.04 0.04 0.03 0.02 0.03 0.03 0.02 0.02 0.02 0.02 0.02 0.01 0.01 0.00 0.00 0.00
0.06 0.05 0.08 0.07 0.05 0.04 0.03 0.03 0.02 0.02 0.03 0.03 0.03 0.02 0.02 0.01 0.01 0.01 0.02 0.03 0.03 0.02 0.02 0.03 0.03 0.03 0.03 0.02 0.02 0.02 0.02 0.03 0.03 0.03 0.03 0.02 0.02 0.02 0.01 0.01 0.01 0.00 0.00 0.00
0.08 0.08 0.08 0.07 0.04 0.04 0.04 0.04 0.02 0.02 0.02 0.03 0.03 0.02 0.03 0.02 0.01 0.01 0.02 0.03 0.03 0.02 0.03 0.03 0.03 0.03 0.03 0.02 0.02 0.02 0.02 0.02 0.02 0.02 0.02 0.02 0.01 0.01 0.01 0.00 0.00 0.00 0.00 0.00
0.10 0.12 0.12 0.09 0.05 0.04 0.03 0.04 0.03 0.03 0.06 0.06 0.04 0.01 0.02 0.02 0.01 0.01 0.03 0.04 0.04 0.03 0.03 0.03 0.03 0.03 0.03 0.02 0.02 0.03 0.02 0.02 0.01 0.01 0.01 0.01 0.01 0.01 0.00 0.01 0.01 0.00 0.00 0.00
0.13 0.14 0.13 0.07 0.03 0.03 0.03 0.04 0.03 0.03 0.04 0.04 0.03 0.02 0.01 0.01 0.01 0.01 0.03 0.04 0.04 0.03 0.03 0.03 0.03 0.03 0.02 0.02 0.02 0.02 0.01 0.01 0.01 0.01 0.01 0.01 0.01 0.01 0.00 0.01 0.01 0.00 0.00 0.00
0.11 0.12 0.11 0.03 0.03 0.04 0.03 0.01 0.01 0.02 0.01 0.01 0.01 0.00 0.01 0.01 0.01 0.02 0.04 0.04 0.03 0.03 0.03 0.03 0.03 0.02 0.02 0.01 0.01 0.01 0.01 0.01 0.01 0.01 0.01 0.00 0.00 0.00 0.01 0.01 0.00 0.00 0.00 0.00
0.10 0.08 0.04 0.02 0.02 0.01 0.00 0.00 0.01 0.02 0.01 0.00 0.00 0.00 0.01 0.01 0.02 0.03 0.04 0.04 0.04 0.02 0.02 0.02 0.02 0.02 0.01 0.01 0.01 0.00 0.00 0.01 0.01 0.01 0.00 0.00 0.00 0.00 0.01 0.01 0.00 0.00 0.00 0.00
0.10 0.07 0.03 0.02 0.01 0.00 0.00 0.01 0.01 0.01 0.01 0.01 0.00 0.00 0.01 0.02 0.03 0.03 0.04 0.04 0.03 0.02 0.02 0.02 0.02 0.01 0.01 0.01 0.01 0.01 0.01 0.01 0.00 0.00 0.00 0.00 0.00 0.00 0.00 0.00 0.00 0.00 0.00 0.00
0.10 0.06 0.04 0.02 0.01 0.00 0.01 0.01 0.01 0.01 0.01 0.01 0.00 0.00 0.01 0.02 0.02 0.03 0.03 0.03 0.03 0.03 0.02 0.03 0.02 0.02 0.01 0.01 0.01 0.01 0.01 0.00 0.00 0.00 0.00 0.00 0.00 0.00 0.00 0.00 0.00 0.00 0.00 0.00
0.08 0.06 0.04 0.02 0.01 0.01 0.01 0.01 0.01 0.01 0.01 0.00 0.00 0.00 0.01 0.02 0.01 0.02 0.03 0.03 0.03 0.04 0.03 0.02 0.02 0.02 0.01 0.01 0.00 0.00 0.00 0.00 0.00 0.00 0.00 0.00 0.00 0.00 0.00 0.00 0.00 0.00 0.00 0.00
0.06 0.06 0.04 0.01 0.01 0.01 0.01 0.01 0.01 0.01 0.01 0.00 0.00 0.01 0.02 0.03 0.02 0.02 0.02 0.03 0.03 0.03 0.02 0.01 0.01 0.02 0.02 0.01 0.00 0.00 0.00 0.00 0.00 0.00 0.00 0.00 0.00 0.00 0.00 0.00 0.00 0.00 0.00 0.00
0.06 0.05 0.02 0.02 0.01 0.01 0.01 0.01 0.01 0.01 0.01 0.01 0.01 0.01 0.03 0.03 0.02 0.02 0.02 0.02 0.02 0.01 0.01 0.01 0.01 0.01 0.01 0.00 0.00 0.00 0.00 0.00 0.00 0.00 0.00 0.00 0.00 0.00 0.00 0.00 0.00 0.00 0.00 0.00
0.09 0.03 0.01 0.02 0.01 0.01 0.01 0.01 0.01 0.01 0.01 0.01 0.01 0.01 0.01 0.02 0.02 0.01 0.01 0.02 0.01 0.01 0.01 0.01 0.01 0.01 0.01 0.00 0.00 0.00 0.00 0.00 0.00 0.00 0.00 0.00 0.00 0.00 0.00 0.00 0.00 0.00 0.00 0.00
0.05 0.02 0.01 0.01 0.01 0.01 0.01 0.01 0.01 0.01 0.01 0.01 0.00 0.00 0.00 0.01 0.01 0.01 0.01 0.01 0.01 0.01 0.01 0.01 0.01 0.01 0.01 0.00 0.00 0.00 0.00 0.00 0.00 0.00 0.00 0.00 0.00 0.00 0.00 0.00 0.00 0.00 0.00 0.00
0.03 0.01 0.01 0.00 0.00 0.01 0.01 0.00 0.00 0.00 0.00 0.00 0.00 0.00 0.00 0.00 0.00 0.01 0.01 0.01 0.00 0.00 0.00 0.00 0.01 0.01 0.00 0.00 0.00 0.00 0.00 0.00 0.00 0.00 0.00 0.00 0.00 0.00 0.00 0.00 0.00 0.00 0.00 0.00
0.04 0.01 0.00 0.00 0.00 0.00 0.00 0.00 0.00 0.00 0.00 0.00 0.00 0.00 0.00 0.00 0.00 0.00 0.01 0.00 0.00 0.00 0.00 0.00 0.00 0.00 0.00 0.00 0.00 0.00 0.00 0.00 0.00 0.00 0.00 0.00 0.00 0.00 0.00 0.00 0.00 0.00 0.00 0.00
0.03 0.01 0.00 0.00 0.00 0.00 0.00 0.00 0.00 0.00 0.00 0.00 0.00 0.00 0.00 0.00 0.00 0.00 0.00 0.00 0.00 0.00 0.00 0.00 0.00 0.00 0.00 0.00 0.00 0.01 0.00 0.00 0.00 0.00 0.00 0.00 0.00 0.00 0.00 0.00 0.00 0.00 0.00 0.00
0.02 0.01 0.00 0.00 0.00 0.00 0.00 0.00 0.00 0.00 0.00 0.00 0.00 0.00 0.00 0.00 0.00 0.00 0.00 0.00 0.00 0.00 0.00 0.00 0.00 0.00 0.00 0.00 0.00 0.00 0.00 0.00 0.00 0.00 0.00 0.00 0.00 0.00 0.00 0.00 0.00 0.00 0.00 0.00
0.01 0.01 0.00 0.00 0.00 0.00 0.00 0.00 0.00 0.00 0.00 0.00 0.00 0.00 0.00 0.00 0.00 0.00 0.00 0.00 0.00 0.00 0.00 0.00 0.00 0.00 0.00 0.00 0.00 0.00 0.00 0.00 0.00 0.00 0.00 0.00 0.00 0.00 0.00 0.00 0.00 0.00 0.00 0.00
0.01 0.00 0.00 0.00 0.00 0.00 0.00 0.00 0.00 0.00 0.00 0.00 0.00 0.00 0.00 0.00 0.00 0.00 0.00 0.00 0.00 0.00 0.00 0.00 0.00 0.00 0.00 0.00 0.00 0.00 0.00 0.00 0.00 0.00 0.00 0.00 0.00 0.00 0.00 0.00 0.00 0.00 0.00 0.00
0.01 0.00 0.00 0.00 0.00 0.00 0.00 0.00 0.00 0.00 0.00 0.00 0.00 0.00 0.00 0.00 0.00 0.00 0.00 0.00 0.00 0.00 0.00 0.00 0.00 0.00 0.00 0.00 0.00 0.00 0.00 0.00 0.00 0.00 0.00 0.00 0.00 0.00 0.00 0.00 0.00 0.00 0.00 0.00
0.01 0.00 0.00 0.00 0.00 0.00 0.00 0.00 0.00 0.00 0.00 0.00 0.00 0.00 0.00 0.00 0.00 0.00 0.00 0.00 0.00 0.00 0.00 0.00 0.00 0.00 0.00 0.00 0.00 0.00 0.00 0.00 0.00 0.00 0.00 0.00 0.00 0.00 0.00 0.00 0.00 0.00 0.00 0.00
0.01 0.00 0.00 0.00 0.00 0.00 0.00 0.00 0.00 0.00 0.00 0.00 0.00 0.00 0.00 0.00 0.00 0.00 0.00 0.00 0.00 0.00 0.00 0.00 0.00 0.00 0.00 0.00 0.00 0.00 0.00 0.00 0.00 0.00 0.00 0.00 0.00 0.00 0.00 0.00 0.00 0.00 0.00 0.00
0.01 0.00 0.00 0.00 0.00 0.00 0.00 0.00 0.00 0.00 0.00 0.00 0.00 0.00 0.00 0.00 0.00 0.00 0.00 0.00 0.00 0.00 0.00 0.00 0.00 0.00 0.00 0.00 0.00 0.00 0.00 0.00 0.00 0.00 0.00 0.00 0.00 0.00 0.00 0.00 0.00 0.00 0.00 0.00
0.01 0.00 0.00 0.00 0.00 0.00 0.00 0.00 0.00 0.00 0.00 0.00 0.00 0.00 0.00 0.00 0.00 0.00 0.00 0.00 0.00 0.00 0.00 0.00 0.00 0.00 0.00 0.00 0.00 0.00 0.00 0.00 0.00 0.00 0.00 0.00 0.00 0.00 0.00 0.00 0.00 0.00 0.00 0.00
MSLP
1011.96 1011.64 1011.41 1011.30 1011.30 1011.42 1011.60 1011.83 1012.07 1012.30 1012.52 1012.74 1012.98 1013.27 1013.64 1014.10 1014.64 1015.25 1015.90 1016.55 1017.15 1017.68 1018.10 1018.40 1018.59 1018.68 1018.70 1018.67 1018.63 1018.59 1018.59 1018.64 1018.75 1018.92 1019.15 1019.44 1019.78 1020.14 1020.50 1020.85 1021.16 1021.42 1021.61 1021.73
1011.95 1011.60 1011.28 1011.04 1010.89 1010.85 1010.91 1011.07 1011.31 1011.63 1012.00 1012.43 1012.91 1013.44 1014.01 1014.62 1015.27 1015.91 1016.55 1017.16 1017.70 1018.18 1018.57 1018.87 1019.10 1019.26 1019.37 1019.44 1019.49 1019.54 1019.60 1019.70 1019.83 1020.00 1020.23 1020.50 1020.80 1021.13 1021.46 1021.76 1022.02 1022.21 1022.34 1022.39
1012.01 1011.64 1011.26 1010.92 1010.65 1010.49 1010.46 1010.58 1010.83 1011.23 1011.74 1012.34 1013.02 1013.74 1014.47 1015.21 1015.91 1016.58 1017.18 1017.73 1018.20 1018.62 1018.96 1019.26 1019.51 1019.72 1019.90 1020.05 1020.19 1020.32 1020.44 1020.58 1020.74 1020.92 1021.14 1021.40 1021.68 1021.98 1022.27 1022.54 1022.76 1022.91 1022.99 1023.00
1012.15 1011.76 1011.34 1010.93 1010.58 1010.34 1010.26 1010.36 1010.64 1011.10 1011.72 1012.47 1013.29 1014.15 1015.01 1015.83 1016.57 1017.23 1017.80 1018.28 1018.69 1019.04 1019.34 1019.62 1019.87 1020.12 1020.35 1020.57 1020.77 1020.95 1021.13 1021.29 1021.47 1021.66 1021.87 1022.11 1022.37 1022.65 1022.92 1023.17 1023.37 1023.50 1023.55 1023.54
1012.34 1011.92 1011.46 1011.00 1010.61 1010.34 1010.25 1010.35 1010.67 1011.20 1011.91 1012.76 1013.70 1014.66 1015.60 1016.46 1017.23 1017.88 1018.41 1018.84 1019.19 1019.48 1019.75 1020.00 1020.26 1020.52 1020.78 1021.04 1021.28 1021.50 1021.70 1021.88 1022.05 1022.23 1022.43 1022.65 1022.90 1023.15 1023.41 1023.64 1023.83 1023.95 1024.00 1023.99
1012.49 1012.03 1011.54 1011.06 1010.66 1010.41 1010.33 1010.47 1010.85 1011.44 1012.23 1013.16 1014.18 1015.21 1016.20 1017.09 1017.86 1018.50 1019.01 1019.40 1019.71 1019.97 1020.21 1020.44 1020.70 1020.96 1021.24 1021.51 1021.77 1021.99 1022.19 1022.37 1022.53 1022.69 1022.87 1023.07 1023.29 1023.52 1023.76 1023.98 1024.17 1024.30 1024.36 1024.36
1012.54 1012.02 1011.51 1011.04 1010.67 1010.46 1010.44 1010.66 1011.10 1011.77 1012.63 1013.62 1014.69 1015.76 1016.77 1017.68 1018.46 1019.09 1019.57 1019.95 1020.23 1020.48 1020.70 1020.93 1021.17 1021.44 1021.71 1021.98 1022.23 1022.45 1022.64 1022.80 1022.94 1023.08 1023.22 1023.39 1023.59 1023.80 1024.03 1024.24 1024.43 1024.57 1024.65 1024.67
1012.42 1011.86 1011.34 1010.91 1010.60 1010.47 1010.55 1010.86 1011.39 1012.14 1013.05 1014.09 1015.18 1016.27 1017.29 1018.19 1018.96 1019.58 1020.06 1020.43 1020.71 1020.95 1021.16 1021.39 1021.63 1021.88 1022.15 1022.40 1022.64 1022.85 1023.02 1023.16 1023.28 1023.39 1023.52 1023.66 1023.83 1024.03 1024.24 1024.45 1024.63 1024.78 1024.89 1024.94
1012.13 1011.54 1011.05 1010.68 1010.48 1010.46 1010.66 1011.08 1011.71 1012.52 1013.48 1014.54 1015.64 1016.71 1017.70 1018.59 1019.34 1019.94 1020.42 1020.78 1021.07 1021.30 1021.52 1021.75 1021.98 1022.23 1022.48 1022.72 1022.95 1023.14 1023.30 1023.43 1023.54 1023.65 1023.76 1023.90 1024.06 1024.24 1024.43 1024.63 1024.82 1024.98 1025.10 1025.18
1011.68 1011.12 1010.70 1010.43 1010.36 1010.48 1010.81 1011.34 1012.06 1012.93 1013.91 1014.96 1016.02 1017.05 1018.00 1018.84 1019.55 1020.13 1020.59 1020.95 1021.24 1021.48 1021.71 1021.93 1022.16 1022.40 1022.64 1022.88 1023.10 1023.29 1023.45 1023.59 1023.71 1023.83 1023.95 1024.09 1024.25 1024.43 1024.63 1024.82 1025.01 1025.17 1025.31 1025.41
1011.15 1010.66 1010.35 1010.22 1010.30 1010.58 1011.04 1011.68 1012.46 1013.35 1014.33 1015.33 1016.33 1017.29 1018.16 1018.93 1019.59 1020.13 1020.56 1020.91 1021.20 1021.45 1021.67 1021.90 1022.13 1022.37 1022.60 1022.84 1023.06 1023.27 1023.46 1023.62 1023.78 1023.93 1024.09 1024.25 1024.43 1024.62 1024.82 1025.01 1025.20 1025.37 1025.51 1025.62
1010.58 1010.23 1010.07 1010.12 1010.36 1010.79 1011.38 1012.09 1012.91 1013.80 1014.73 1015.66 1016.57 1017.41 1018.18 1018.87 1019.45 1019.94 1020.35 1020.68 1020.97 1021.22 1021.45 1021.67 1021.91 1022.14 1022.39 1022.63 1022.87 1023.11 1023.33 1023.55 1023.76 1023.96 1024.17 1024.37 1024.58 1024.79 1025.00 1025.20 1025.39 1025.55 1025.70 1025.82
1010.03 1009.85 1009.89 1010.12 1010.54 1011.11 1011.80 1012.57 1013.40 1014.26 1015.11 1015.94 1016.72 1017.45 1018.10 1018.69 1019.20 1019.64 1020.01 1020.33 1020.61 1020.86 1021.10 1021.33 1021.57 1021.81 1022.06 1022.32 1022.59 1022.86 1023.14 1023.41 1023.68 1023.95 1024.21 1024.47 1024.72 1024.95 1025.18 1025.38 1025.57 1025.73 1025.87 1025.99
1009.52 1009.54 1009.78 1010.20 1010.78 1011.48 1012.25 1013.06 1013.87 1014.66 1015.42 1016.14 1016.79 1017.40 1017.95 1018.44 1018.88 1019.28 1019.63 1019.94 1020.23 1020.49 1020.74 1020.98 1021.22 1021.47 1021.73 1022.01 1022.30 1022.61 1022.93 1023.26 1023.59 1023.92 1024.24 1024.55 1024.83 1025.10 1025.33 1025.54 1025.72 1025.88 1026.02 1026.13
1009.02 1009.25 1009.70 1010.30 1011.03 1011.83 1012.66 1013.47 1014.25 1014.98 1015.64 1016.25 1016.79 1017.29 1017.74 1018.17 1018.56 1018.93 1019.28 1019.60 1019.91 1020.18 1020.45 1020.71 1020.96 1021.22 1021.49 1021.78 1022.09 1022.43 1022.79 1023.16 1023.54 1023.92 1024.28 1024.63 1024.94 1025.22 1025.46 1025.67 1025.84 1025.99 1026.12 1026.23
1008.51 1008.94 1009.57 1010.34 1011.19 1012.08 1012.95 1013.76 1014.50 1015.16 1015.74 1016.26 1016.71 1017.13 1017.53 1017.91 1018.29 1018.67 1019.03 1019.38 1019.71 1020.02 1020.31 1020.58 1020.85 1021.11 1021.39 1021.68 1022.00 1022.35 1022.73 1023.13 1023.54 1023.95 1024.34 1024.70 1025.03 1025.31 1025.55 1025.75 1025.91 1026.04 1026.16 1026.26
1007.96 1008.58 1009.36 1010.27 1011.22 1012.17 1013.06 1013.87 1014.58 1015.19 1015.71 1016.17 1016.57 1016.95 1017.32 1017.71 1018.10 1018.50 1018.90 1019.29 1019.67 1020.01 1020.33 1020.62 1020.90 1021.16 1021.43 1021.72 1022.03 1022.38 1022.76 1023.16 1023.58 1023.99 1024.39 1024.76 1025.09 1025.36 1025.59 1025.78 1025.92 1026.04 1026.14 1026.23
1007.40 1008.15 1009.06 1010.06 1011.09 1012.08 1012.99 1013.80 1014.49 1015.07 1015.56 1015.99 1016.38 1016.75 1017.14 1017.55 1017.98 1018.43 1018.88 1019.33 1019.75 1020.13 1020.48 1020.78 1021.06 1021.32 1021.57 1021.84 1022.14 1022.47 1022.83 1023.21 1023.62 1024.02 1024.41 1024.77 1025.08 1025.35 1025.56 1025.72 1025.85 1025.95 1026.04 1026.12
1006.85 1007.69 1008.68 1009.74 1010.82 1011.83 1012.76 1013.57 1014.25 1014.83 1015.32 1015.75 1016.15 1016.56 1016.98 1017.44 1017.92 1018.43 1018.94 1019.43 1019.89 1020.30 1020.67 1020.98 1021.25 1021.50 1021.73 1021.97 1022.24 1022.53 1022.86 1023.22 1023.60 1023.98 1024.35 1024.69 1024.99 1025.24 1025.43 1025.58 1025.70 1025.79 1025.86 1025.94
1006.36 1007.26 1008.29 1009.38 1010.47 1011.49 1012.42 1013.23 1013.92 1014.51 1015.02 1015.48 1015.92 1016.37 1016.84 1017.35 1017.89 1018.45 1019.00 1019.53 1020.02 1020.45 1020.82 1021.13 1021.39 1021.62 1021.82 1022.03 1022.26 1022.52 1022.81 1023.14 1023.48 1023.84 1024.18 1024.50 1024.78 1025.02 1025.21 1025.35 1025.46 1025.54 1025.61 1025.68
1006.00 1006.92 1007.95 1009.03 1010.11 1011.12 1012.04 1012.86 1013.56 1014.17 1014.71 1015.20 1015.69 1016.19 1016.71 1017.27 1017.85 1018.44 1019.02 1019.57 1020.07 1020.51 1020.88 1021.18 1021.42 1021.62 1021.79 1021.97 1022.16 1022.39 1022.64 1022.93 1023.24 1023.57 1023.89 1024.19 1024.46 1024.69 1024.88 1025.02 1025.13 1025.22 1025.29 1025.37
1005.81 1006.70 1007.70 1008.74 1009.78 1010.77 1011.68 1012.48 1013.20 1013.83 1014.40 1014.94 1015.47 1016.01 1016.57 1017.16 1017.77 1018.38 1018.97 1019.52 1020.02 1020.45 1020.80 1021.08 1021.30 1021.48 1021.63 1021.78 1021.94 1022.13 1022.35 1022.61 1022.89 1023.19 1023.49 1023.78 1024.04 1024.27 1024.46 1024.62 1024.74 1024.84 1024.92 1025.00
1005.78 1006.61 1007.54 1008.53 1009.51 1010.46 1011.34 1012.13 1012.85 1013.50 1014.11 1014.68 1015.25 1015.83 1016.42 1017.03 1017.64 1018.25 1018.83 1019.37 1019.85 1020.26 1020.59 1020.86 1021.06 1021.22 1021.35 1021.48 1021.62 1021.79 1021.98 1022.21 1022.47 1022.74 1023.02 1023.29 1023.55 1023.78 1023.98 1024.14 1024.28 1024.40 1024.50 1024.59
1005.87 1006.62 1007.47 1008.37 1009.28 1010.17 1011.01 1011.80 1012.52 1013.19 1013.82 1014.43 1015.03 1015.63 1016.23 1016.85 1017.46 1018.05 1018.62 1019.13 1019.59 1019.98 1020.29 1020.54 1020.74 1020.89 1021.02 1021.14 1021.26 1021.41 1021.58 1021.78 1022.01 1022.26 1022.51 1022.77 1023.01 1023.24 1023.44 1023.62 1023.77 1023.91 1024.02 1024.13
1006.03 1006.67 1007.42 1008.22 1009.06 1009.88 1010.68 1011.45 1012.18 1012.86 1013.52 1014.15 1014.78 1015.40 1016.01 1016.62 1017.21 1017.79 1018.32 1018.82 1019.25 1019.62 1019.93 1020.17 1020.37 1020.53 1020.66 1020.78 1020.91 1021.04 1021.20 1021.37 1021.57 1021.78 1022.01 1022.23 1022.45 1022.66 1022.86 1023.05 1023.21 1023.36 1023.50 1023.62
1006.16 1006.69 1007.33 1008.03 1008.78 1009.55 1010.31 1011.07 1011.79 1012.50 1013.18 1013.84 1014.49 1015.12 1015.73 1016.33 1016.91 1017.46 1017.97 1018.43 1018.85 1019.21 1019.52 1019.77 1019.98 1020.16 1020.31 1020.45 1020.58 1020.71 1020.85 1021.00 1021.16 1021.33 1021.52 1021.70 1021.89 1022.07 1022.25 1022.43 1022.59 1022.75 1022.90 1023.04
1006.19 1006.61 1007.14 1007.75 1008.42 1009.14 1009.87 1010.62 1011.36 1012.08 1012.79 1013.48 1014.14 1014.78 1015.39 1015.97 1016.53 1017.05 1017.54 1017.98 1018.39 1018.74 1019.06 1019.34 1019.57 1019.78 1019.96 1020.12 1020.26 1020.40 1020.52 1020.65 1020.78 1020.90 1021.03 1021.17 1021.31 1021.45 1021.60 1021.76 1021.92 1022.08 1022.23 1022.39
Thickness
5662 5669 5671 5671 5673 5673 5665 5658 5647 5647 5643 5639 5634 5627 5618 5610 5602 5595 5588 5582 5577 5571 5567 5564 5561 5560 5559 5559 5559 5560 5560 5560 5559 5560 5562 5563 5563 5564 5564 5564 5563 5563 5564 5563
5658 5670 5671 5671 5674 5673 5670 5666 5658 5649 5640 5641 5631 5621 5612 5605 5599 5590 5583 5576 5569 5564 5559 5556 5554 5552 5550 5549 5549 5550 5550 5550 5550 5551 5551 5552 5552 5552 5552 5552 5551 5551 5551 5551
5641 5659 5662 5655 5665 5667 5665 5664 5657 5644 5640 5632 5622 5616 5609 5602 5594 5585 5578 5570 5563 5557 5552 5548 5546 5544 5542 5541 5541 5541 5541 5541 5541 5541 5541 5542 5542 5542 5541 5540 5540 5539 5539 5539
5635 5643 5638 5655 5671 5671 5664 5659 5658 5650 5640 5632 5622 5611 5602 5595 5587 5578 5571 5563 5556 5550 5544 5540 5538 5536 5535 5534 5534 5534 5533 5533 5533 5533 5533 5532 5532 5531 5531 5530 5530 5529 5529 5529
5629 5632 5641 5658 5667 5665 5655 5646 5649 5642 5632 5620 5610 5599 5589 5585 5579 5572 5564 5556 5549 5543 5538 5534 5532 5530 5529 5528 5527 5526 5525 5525 5525 5525 5525 5524 5524 5523 5523 5522 5522 5521 5520 5520
5630 5630 5631 5651 5669 5671 5657 5637 5642 5637 5626 5614 5606 5595 5587 5579 5572 5563 5555 5547 5541 5536 5532 5529 5526 5524 5523 5521 5520 5520 5519 5519 5519 5518 5518 5517 5517 5517 5516 5515 5514 5513 5512 5512
5630 5629 5640 5662 5670 5666 5641 5638 5640 5633 5624 5613 5605 5599 5588 5575 5565 5556 5548 5541 5536 5531 5527 5524 5522 5520 5518 5517 5515 5515 5515 5514 5513 5512 5512 5511 5511 5510 5509 5508 5506 5505 5503 5503
5629 5628 5637 5666 5665 5654 5649 5649 5640 5629 5619 5608 5599 5591 5580 5569 5559 5549 5541 5535 5531 5527 5523 5520 5519 5517 5514 5513 5512 5512 5510 5509 5508 5508 5508 5507 5506 5504 5503 5501 5499 5497 5495 5494
5631 5635 5651 5660 5660 5659 5654 5643 5633 5622 5612 5603 5593 5583 5573 5562 5553 5544 5537 5531 5527 5523 5520 5517 5516 5515 5512 5510 5510 5508 5506 5504 5503 5503 5502 5502 5501 5499 5497 5495 5493 5490 5489 5487
5635 5644 5650 5655 5655 5652 5648 5639 5630 5620 5609 5600 5590 5578 5567 5557 5548 5540 5534 5528 5524 5520 5517 5514 5513 5512 5510 5509 5508 5505 5502 5500 5499 5498 5497 5496 5495 5494 5491 5489 5488 5486 5484 5482
5634 5641 5646 5648 5647 5643 5639 5632 5622 5612 5604 5595 5586 5574 5564 5554 5545 5538 5532 5526 5522 5517 5514 5512 5511 5509 5508 5507 5505 5502 5500 5498 5496 5494 5492 5489 5487 5486 5486 5485 5486 5484 5482 5479
5635 5643 5641 5639 5641 5639 5632 5624 5616 5607 5596 5588 5582 5571 5561 5551 5544 5537 5531 5525 5520 5516 5513 5511 5509 5507 5506 5505 5503 5500 5497 5495 5492 5490 5488 5486 5484 5482 5483 5483 5484 5484 5482 5480
5648 5648 5645 5641 5637 5634 5627 5619 5612 5603 5594 5585 5576 5569 5560 5550 5543 5537 5531 5525 5520 5515 5512 5510 5508 5506 5505 5504 5502 5499 5496 5494 5492 5489 5487 5484 5483 5482 5480 5479 5480 5480 5479 5478
5651 5648 5640 5636 5632 5629 5623 5615 5607 5598 5590 5583 5575 5567 5559 5550 5543 5537 5531 5526 5520 5516 5512 5510 5508 5505 5505 5503 5501 5499 5497 5495 5493 5490 5488 5486 5484 5482 5480 5479 5478 5477 5478 5478
5651 5649 5641 5634 5629 5623 5618 5611 5602 5594 5587 5580 5573 5566 5559 5551 5544 5538 5533 5528 5522 5517 5513 5511 5508 5506 5505 5504 5501 5499 5497 5495 5494 5492 5491 5488 5486 5484 5482 5481 5479 5478 5478 5479
5646 5643 5638 5631 5625 5619 5614 5608 5601 5594 5587 5580 5573 5567 5560 5553 5546 5540 5535 5530 5523 5518 5515 5513 5510 5508 5507 5504 5502 5499 5498 5498 5497 5494 5493 5491 5489 5487 5485 5483 5482 5480 5480 5480
5642 5636 5633 5629 5624 5618 5614 5609 5603 5596 5589 5582 5576 5569 5562 5555 5548 5542 5537 5532 5527 5523 5519 5516 5513 5512 5509 5507 5504 5501 5500 5500 5500 5497 5496 5494 5492 5491 5489 5487 5485 5484 5484 5485
5649 5645 5640 5635 5628 5621 5615 5610 5605 5598 5592 5586 5580 5573 5565 5559 5552 5546 5541 5536 5530 5526 5522 5520 5518 5515 5513 5510 5508 5505 5504 5502 5501 5499 5498 5497 5496 5495 5494 5492 5491 5490 5489 5489
5649 5645 5641 5637 5632 5625 5619 5613 5607 5601 5595 5590 5583 5576 5570 5563 5557 5551 5546 5540 5535 5530 5527 5525 5523 5520 5517 5515 5513 5510 5508 5507 5505 5504 5503 5503 5501 5500 5499 5497 5496 5495 5493 5493
5650 5647 5643 5639 5634 5628 5622 5616 5610 5604 5598 5592 5586 5579 5573 5567 5562 5556 5550 5545 5541 5538 5535 5532 5528 5525 5523 5521 5519 5516 5514 5513 5511 5509 5508 5506 5505 5504 5504 5503 5502 5500 5499 5497
5652 5649 5645 5641 5636 5631 5626 5620 5614 5607 5602 5596 5590 5584 5578 5572 5567 5562 5555 5549 5547 5545 5542 5538 5535 5532 5530 5528 5526 5523 5521 5519 5517 5515 5514 5512 5511 5510 5509 5508 5507 5506 5504 5503
5653 5650 5646 5643 5638 5632 5628 5623 5618 5612 5606 5600 5595 5589 5583 5577 5572 5567 5563 5559 5555 5552 5548 5544 5541 5539 5537 5534 5531 5529 5527 5526 5524 5522 5520 5518 5516 5515 5514 5513 5512 5511 5510 5508
5654 5652 5648 5645 5640 5635 5630 5626 5621 5616 5610 5605 5600 5595 5589 5584 5579 5573 5567 5565 5563 5559 5555 5552 5549 5546 5544 5540 5538 5536 5534 5533 5531 5529 5527 5525 5524 5522 5521 5520 5518 5517 5515 5513
5653 5651 5649 5645 5641 5636 5631 5628 5624 5620 5615 5610 5606 5601 5595 5589 5584 5581 5578 5574 5570 5565 5562 5559 5556 5553 5550 5546 5544 5543 5542 5540 5538 5536 5534 5532 5531 5529 5528 5526 5524 5523 5521 5520
5652 5650 5647 5645 5641 5638 5633 5630 5626 5621 5618 5614 5610 5606 5602 5598 5592 5588 5585 5581 5576 5571 5568 5565 5562 5559 5555 5553 5551 5550 5548 5547 5546 5544 5541 5539 5538 5536 5535 5533 5531 5530 5528 5526
5649 5649 5648 5647 5645 5641 5637 5633 5629 5626 5622 5617 5614 5611 5608 5604 5600 5596 5591 5588 5583 5578 5575 5571 5568 5565 5562 5560 5558 5557 5556 5554 5553 5551 5549 5547 5545 5544 5542 5540 5539 5537 5535 5533
5645 5646 5644 5642 5642 5641 5639 5636 5633 5630 5628 5624 5620 5617 5613 5610 5606 5602 5598 5594 5589 5585 5582 5578 5575 5572 5569 5567 5566 5564 5563 5561 5560 5558 5556 5554 5553 5551 5549 5548 5546 5544 5541 5539